Theta_e
323 320 319 313 297 295 291 296 299 300 304 310 314 312 310 312 312 307 329 333 339 338 342 344 346 347 347 347 347 347 345 342 338 336 336 336 335 335 335 335 337 334 334 335 335 335 334 332 333
320 321 314 306 293 288 290 296 298 301 308 310 311 310 309 311 324 325 325 336 339 340 341 343 344 347 347 347 346 346 345 343 340 337 336 335 335 335 335 334 334 335 334 335 335 334 334 333 333
316 321 306 300 293 288 290 294 296 300 307 309 307 312 312 317 323 326 331 336 339 339 340 342 343 347 347 347 345 345 344 342 341 339 336 335 335 335 335 334 335 335 334 334 335 334 335 335 335
312 311 307 296 294 297 296 300 300 300 303 309 310 306 319 326 326 331 334 335 337 338 339 339 344 347 347 346 345 344 344 342 340 339 336 335 335 334 335 334 337 334 335 334 335 336 336 335 337
311 306 296 294 295 299 302 305 303 301 299 300 305 304 313 326 332 332 332 331 336 337 338 339 343 345 345 345 344 343 342 341 340 338 338 334 334 333 334 334 332 332 335 334 335 336 336 338 338
303 303 293 291 295 301 303 306 305 302 303 303 302 299 311 326 329 330 332 330 335 336 337 339 337 340 342 342 342 341 341 340 338 337 335 333 333 333 335 332 332 333 338 336 336 338 337 338 338
300 297 293 294 295 298 302 305 302 304 303 304 307 302 313 324 328 330 330 331 329 335 336 337 340 338 335 337 338 338 339 338 337 336 332 331 331 331 332 331 335 338 340 339 337 339 338 338 336
300 297 291 290 291 294 301 304 305 304 305 310 309 302 302 323 329 330 330 328 330 334 335 335 338 339 337 336 332 333 335 335 334 333 331 329 328 329 330 330 333 337 339 339 338 336 336 337 334
302 291 288 291 292 295 302 299 304 306 303 305 308 308 316 327 328 326 323 325 327 330 331 334 337 338 336 335 332 330 331 331 330 328 326 325 327 327 326 328 331 335 337 338 336 336 334 333 330
295 289 291 294 296 294 296 295 298 296 296 300 302 305 304 323 322 321 320 321 323 324 328 331 335 337 335 336 334 333 333 331 328 325 325 327 326 326 328 326 327 332 332 335 335 334 328 325 325
295 290 294 294 296 294 293 292 293 290 292 296 295 295 297 298 298 313 323 323 324 326 327 331 330 336 335 334 332 333 332 329 327 325 325 326 325 324 325 324 328 329 325 332 330 326 324 321 320
289 292 292 295 295 293 290 292 289 289 289 294 293 294 295 297 298 300 305 314 325 325 328 329 332 334 335 335 332 331 330 328 326 326 326 324 323 323 325 325 325 327 330 326 326 324 324 320 320
288 291 293 293 292 291 292 290 289 290 293 295 295 298 297 298 299 298 298 302 303 314 328 329 331 332 334 334 332 330 329 327 326 326 326 325 323 322 325 325 325 325 329 326 324 324 322 319 319
291 291 291 292 291 292 290 287 287 289 292 294 296 296 297 294 294 294 295 297 300 303 312 329 329 332 333 332 331 330 329 328 326 326 326 325 323 324 325 325 325 325 327 326 325 321 319 317 316
292 288 289 290 292 289 287 284 284 288 293 292 292 292 292 292 294 295 295 294 294 297 302 320 328 330 331 331 329 330 329 328 326 325 325 325 323 325 326 325 324 324 326 325 321 318 316 313 311
288 286 279 287 288 288 286 278 287 290 291 290 291 291 292 292 293 293 295 296 294 295 296 307 325 328 329 329 328 328 327 326 326 325 325 325 324 326 325 324 324 320 323 322 319 316 312 308 306
281 275 278 281 287 287 286 282 287 290 291 289 291 291 292 292 292 293 294 294 295 294 296 300 312 323 327 330 329 327 326 325 325 325 324 325 325 326 324 322 318 318 320 319 317 313 310 304 299
276 276 279 279 285 286 285 284 287 288 289 289 290 291 292 292 293 295 294 294 295 295 295 296 300 312 322 326 328 328 325 324 324 324 324 324 325 325 323 316 314 318 317 315 313 310 308 302 296
282 280 278 282 286 284 283 283 285 288 289 288 289 290 290 289 292 293 295 295 296 297 296 296 297 300 312 318 322 324 322 321 322 323 323 324 325 324 318 312 313 317 315 313 311 308 302 295 293
282 279 275 282 286 284 282 282 286 288 287 288 289 287 289 290 291 294 294 294 297 297 298 298 299 299 301 310 317 321 324 323 322 322 322 324 324 321 316 311 310 314 312 311 308 305 298 293 294
280 278 278 278 282 283 282 277 281 285 287 289 290 290 290 290 292 295 297 298 298 298 299 300 301 301 300 301 305 315 321 323 320 320 320 322 323 317 314 310 309 311 311 308 306 303 298 292 293
278 283 283 281 275 267 280 268 278 283 284 287 289 287 287 289 293 295 297 297 297 298 298 300 301 302 303 302 301 307 311 313 319 319 320 321 321 315 312 308 307 310 310 307 305 302 298 295 293
279 284 282 281 274 270 270 270 276 282 281 283 286 288 287 289 291 293 293 296 296 296 296 297 300 301 303 303 302 302 310 315 317 319 319 319 316 312 307 305 306 308 308 305 303 298 296 297 296
286 283 281 280 272 268 270 270 273 276 280 283 286 287 288 289 291 292 294 295 295 296 297 297 298 301 303 303 302 301 301 307 314 316 317 313 309 305 304 304 306 306 305 302 299 298 296 296 296
282 276 263 263 262 265 275 268 274 280 283 284 285 286 287 289 290 291 292 293 293 294 296 296 297 297 299 300 301 302 302 303 309 312 313 308 305 303 301 302 301 304 301 301 299 297 295 296 294
278 277 265 258 263 267 276 267 275 284 285 286 286 286 288 289 290 291 291 291 292 293 295 296 295 295 296 297 298 299 301 302 307 312 312 310 306 303 300 301 301 302 301 299 298 296 295 294 292
279 275 280 265 263 264 268 274 281 283 284 285 285 286 287 288 289 289 290 290 292 293 293 294 294 294 295 296 296 298 301 302 306 311 310 310 307 302 299 299 299 299 299 298 296 294 292 291 289
280 282 270 267 263 258 266 268 273 278 280 283 283 283 286 288 287 288 289 292 293 292 293 293 294 293 295 296 296 296 298 301 307 309 308 306 304 298 298 297 297 296 296 295 295 291 290 289 287
277 276 277 274 270 264 263 270 278 277 279 282 282 285 286 287 287 287 290 291 291 292 292 291 291 293 293 295 296 296 297 300 304 308 306 303 298 297 296 296 295 294 293 293 291 290 288 287 286
280 278 278 267 266 271 270 271 283 283 283 283 284 285 286 287 286 288 289 289 290 289 289 289 290 291 293 295 296 296 296 298 302 307 304 299 296 295 295 294 294 292 291 290 289 287 287 286 287
Wind_Speed
12 11 4 4 5 5 3 8 4 9 3 1 4 9 5 3 2 3 1 5 17 16 15 15 18 19 19 18 17 17 17 18 17 16 16 16 15 14 13 14 12 13 13 13 14 14 14 14 13
6 8 4 2 5 3 6 5 4 3 2 5 6 4 4 3 3 3 3 11 16 16 14 12 14 18 18 18 18 17 17 17 17 17 17 16 16 15 14 14 13 14 14 13 14 14 13 13 12
7 5 3 3 3 5 5 2 0 2 5 2 2 1 3 4 4 6 4 15 16 15 14 13 14 17 18 17 17 17 16 17 17 17 17 17 16 15 14 14 13 14 14 14 14 14 13 12 11
4 6 4 2 7 8 4 7 3 3 6 6 1 3 4 2 2 7 8 15 13 13 15 14 15 19 18 17 16 16 15 15 16 16 18 17 16 15 13 14 12 13 14 14 15 14 14 12 11
2 2 1 4 7 7 8 7 4 4 1 3 2 3 4 3 7 7 5 10 17 15 13 15 15 18 18 17 17 16 15 15 15 15 16 16 16 15 13 13 13 13 13 15 15 15 13 14 14
3 2 0 6 6 9 7 9 6 3 4 2 5 1 2 3 5 4 5 5 13 14 12 15 15 14 17 16 17 17 16 16 15 14 15 16 15 16 13 14 14 14 13 17 16 16 14 16 20
5 4 5 6 4 8 9 7 6 5 3 4 7 2 3 4 4 4 2 3 5 11 12 13 14 15 15 15 15 16 17 16 15 15 15 14 14 15 15 15 13 11 13 17 14 14 15 17 21
5 4 3 4 4 9 6 11 3 11 6 0 3 2 4 5 6 6 5 2 6 8 13 13 14 13 13 12 14 14 14 15 15 14 13 12 14 12 9 10 11 9 11 17 16 15 15 19 20
2 2 3 5 3 4 7 9 7 7 4 6 8 5 9 5 5 4 3 2 2 3 5 10 12 13 11 10 10 13 13 13 14 13 14 8 5 6 7 6 6 7 16 16 17 15 14 19 19
4 3 7 1 2 1 5 6 8 10 14 6 9 13 6 5 1 3 3 5 5 3 5 8 11 13 12 10 11 11 9 8 8 7 8 8 6 6 6 6 7 8 12 17 17 15 12 11 7
2 5 5 3 3 4 5 8 5 5 6 2 10 17 16 9 2 7 7 6 9 7 5 7 11 13 14 11 9 7 6 6 6 9 9 8 7 5 4 3 3 4 7 6 10 10 4 5 6
2 3 3 6 7 5 5 6 9 6 8 9 10 9 7 11 9 4 8 6 5 7 12 10 12 12 14 9 9 10 9 8 7 8 11 8 6 6 6 5 5 5 6 8 8 5 6 5 8
3 6 8 10 11 9 7 5 7 13 14 12 9 8 9 9 11 5 6 6 6 6 11 12 12 14 14 13 10 11 11 10 10 9 11 9 8 7 7 7 6 5 6 8 8 6 6 6 8
2 6 9 6 7 6 4 5 3 8 8 8 8 9 10 9 9 10 13 7 8 7 5 11 14 14 16 14 12 12 12 13 12 11 11 12 9 8 8 8 7 7 7 8 9 7 7 5 9
2 4 6 4 4 5 4 6 5 6 6 7 10 10 10 10 12 16 14 12 10 11 7 8 13 15 13 16 14 11 12 13 13 13 15 15 13 11 11 9 8 8 7 10 9 8 8 8 8
2 1 4 2 3 2 6 7 10 10 13 20 19 15 12 11 12 11 13 14 10 10 8 7 8 13 14 12 13 12 12 13 13 13 13 18 15 13 12 10 10 7 9 10 10 10 7 8 8
8 2 4 9 7 5 6 11 9 12 17 17 17 16 15 13 11 12 13 12 11 9 9 6 7 9 14 13 12 14 15 12 13 13 14 19 17 16 12 10 9 11 9 10 11 9 12 10 8
4 3 4 6 7 10 14 21 15 10 16 20 16 14 15 16 18 15 11 10 9 8 8 6 5 6 8 10 12 11 13 13 12 14 14 21 17 17 12 9 12 13 10 10 11 14 10 11 11
3 4 6 9 12 11 8 18 22 20 16 19 16 14 14 12 14 9 7 6 7 6 7 8 6 8 4 4 8 10 14 13 13 12 17 20 19 17 14 10 13 12 13 13 15 14 17 9 12
4 6 8 8 3 11 18 25 21 17 10 10 13 11 14 11 9 6 4 1 3 4 6 8 8 8 6 4 4 9 8 11 13 14 18 19 19 17 16 15 13 14 11 14 15 16 11 7 10
4 5 4 6 6 6 12 11 3 3 8 9 11 9 9 7 7 5 4 6 5 6 7 6 8 8 7 8 4 5 11 9 10 13 14 16 19 17 18 18 16 14 13 13 16 16 15 12 7
4 1 4 6 6 2 6 11 7 7 9 8 12 8 8 7 6 5 7 7 7 8 8 8 8 9 8 7 6 8 9 13 10 15 14 14 18 19 17 16 16 15 11 14 14 14 13 13 13
8 6 8 10 4 4 6 2 11 6 9 7 9 8 8 6 3 4 5 6 8 8 8 8 10 10 13 11 9 7 10 10 10 13 22 17 15 17 16 16 16 16 12 13 15 13 12 12 9
5 5 10 2 4 1 5 6 11 5 6 6 5 4 5 7 7 8 6 6 6 8 13 13 10 14 12 11 10 9 10 12 11 9 14 12 12 12 17 17 14 14 13 15 13 12 14 12 9
5 6 6 9 5 8 8 4 15 11 13 6 7 6 7 7 9 7 8 10 14 19 18 16 17 21 19 17 16 15 15 13 17 15 11 15 12 12 15 17 15 13 13 14 14 13 12 12 11
1 6 7 7 5 10 8 9 10 12 10 8 6 6 6 14 7 11 8 12 20 20 19 18 20 22 19 18 22 22 24 14 15 17 9 15 17 16 19 16 15 15 16 14 14 11 9 11 10
1 3 4 1 3 3 6 8 16 13 7 7 8 8 13 11 15 9 12 18 18 18 21 21 20 21 22 24 21 18 17 16 15 17 15 11 17 14 19 20 20 19 16 17 16 11 12 12 10
6 1 4 3 5 7 8 9 16 15 9 9 11 11 17 15 9 12 15 19 20 20 19 21 20 22 22 22 20 21 20 18 16 14 18 17 9 19 18 19 20 17 16 15 15 12 12 14 10
2 2 3 2 4 5 7 11 8 8 9 17 12 19 26 20 16 13 17 19 19 19 19 18 20 20 21 21 21 22 20 16 14 16 17 17 18 17 21 21 21 20 18 18 14 14 15 16 13
6 8 7 6 8 6 4 23 15 19 13 8 28 24 23 24 13 17 19 21 20 18 17 19 19 19 21 22 22 23 21 18 18 18 19 18 19 19 21 21 20 20 20 18 18 17 15 17 15
Wind_Direction
323 308 286 29 57 67 254 259 254 317 60 277 89 92 178 214 236 236 114 151 136 149 157 160 164 164 161 157 152 152 149 143 144 150 145 142 139 137 132 130 125 122 121 118 113 108 107 107 107
315 313 25 70 100 112 261 243 318 24 154 34 49 62 28 148 92 118 105 126 141 148 154 160 165 165 163 158 155 155 153 150 152 152 149 148 146 143 143 136 132 133 125 123 119 111 111 111 109
297 176 64 116 158 186 229 133 292 31 54 92 21 97 128 111 125 144 238 135 143 148 155 160 164 168 163 162 159 156 156 155 158 154 158 154 151 151 141 146 150 129 134 129 122 118 115 112 105
324 1 356 104 243 256 257 290 270 5 23 11 96 341 62 22 99 161 152 133 138 148 158 158 171 167 166 163 164 158 161 163 160 160 162 160 153 153 156 153 142 153 126 132 129 126 122 118 111
21 48 256 220 243 271 275 261 183 151 115 343 13 282 124 52 108 125 150 138 150 159 162 161 169 166 165 167 165 161 167 167 167 168 160 164 162 157 162 154 154 149 155 136 137 134 130 126 109
14 114 268 240 256 269 285 274 282 198 171 329 353 42 54 113 85 148 174 179 151 159 155 164 168 166 166 171 168 166 169 170 169 170 174 168 166 160 160 163 159 157 150 145 150 145 128 105 107
131 87 232 247 257 290 290 337 345 283 214 214 154 62 104 68 98 84 141 208 133 153 156 166 169 169 168 172 171 171 173 174 170 175 178 178 175 173 166 167 180 174 169 148 155 136 122 108 108
128 114 257 253 248 279 333 336 2 48 300 282 109 134 174 217 151 126 92 63 66 163 163 168 171 169 173 174 173 172 178 170 169 186 178 178 178 178 159 182 199 203 170 153 142 132 126 114 116
78 82 245 249 245 280 3 6 338 311 22 319 13 49 23 54 36 61 77 11 34 103 167 167 173 167 173 176 181 177 178 176 178 176 168 174 166 166 174 195 202 208 152 150 137 134 127 117 119
96 150 223 122 134 333 327 26 317 354 340 317 345 343 30 78 296 162 217 212 248 213 184 179 178 177 172 181 181 182 179 184 178 171 163 164 162 168 176 191 204 193 159 140 139 122 119 124 134
343 201 317 4 70 45 342 336 340 345 304 342 317 313 320 326 159 267 225 212 222 214 198 192 185 183 179 190 175 182 182 174 176 169 164 169 165 177 172 166 190 156 142 135 121 129 143 139 125
3 294 8 312 337 358 329 298 311 265 245 268 282 282 309 326 332 245 289 286 247 225 222 201 185 188 188 189 184 183 178 181 181 179 170 170 170 182 177 172 180 149 149 137 142 147 147 148 130
7 335 333 334 328 310 298 287 271 282 277 283 296 305 308 308 306 288 240 286 280 247 231 212 203 189 188 193 189 185 186 184 182 179 183 178 180 189 179 174 173 159 152 150 150 152 147 135 117
328 308 292 286 279 272 293 280 17 283 312 316 330 313 300 295 288 305 307 281 284 267 253 231 217 202 192 196 200 191 184 186 181 181 184 185 189 191 181 174 175 163 156 156 150 146 136 115 108
243 310 317 286 272 277 35 305 227 254 307 307 294 279 276 272 289 287 281 277 269 272 254 235 224 227 203 190 180 203 190 185 187 182 182 186 188 192 180 172 173 168 156 145 128 117 116 102 96
231 141 23 267 242 21 78 265 296 314 335 318 294 289 283 267 257 257 261 268 261 265 271 233 232 221 225 207 191 189 204 185 190 188 181 185 191 187 180 175 173 157 150 146 139 132 116 106 108
13 329 332 332 339 359 52 288 264 289 297 284 289 287 279 280 273 259 254 248 252 247 259 263 260 241 219 218 204 198 193 205 190 190 184 187 189 187 179 175 166 151 147 150 143 145 137 128 110
292 329 304 277 288 314 291 275 280 279 283 281 288 282 281 277 271 268 254 255 249 257 266 259 256 263 262 244 214 215 203 200 190 190 195 184 187 184 173 165 158 150 149 149 143 139 133 131 124
219 241 259 275 285 321 278 288 292 288 283 281 280 277 276 258 258 246 259 265 258 273 285 283 279 271 253 248 248 227 212 196 183 191 188 194 187 177 164 164 160 157 158 155 147 141 136 123 130
256 277 272 281 22 337 296 293 283 277 267 259 266 269 274 281 286 268 254 295 306 277 291 299 289 264 255 239 250 239 234 229 195 190 190 186 191 177 169 165 167 163 155 154 151 150 138 123 157
281 242 282 263 349 279 323 297 333 275 295 293 284 272 292 274 243 244 242 235 251 270 262 257 273 280 277 271 265 262 248 237 196 196 199 189 183 177 171 168 162 163 159 160 158 157 152 156 184
280 322 316 325 40 277 79 288 276 281 278 268 279 293 282 321 319 304 311 309 307 293 291 271 255 261 262 261 258 244 239 234 235 190 196 182 178 175 172 166 161 160 164 165 166 165 161 156 167
240 348 303 289 195 64 323 41 269 273 278 284 292 292 337 325 359 333 304 264 279 286 269 268 271 262 260 246 239 239 254 245 233 237 180 178 166 166 161 156 163 160 163 165 165 159 159 165 157
295 326 309 333 118 230 239 131 278 280 219 283 296 322 297 307 296 273 268 305 308 307 298 284 277 275 270 259 241 230 237 258 236 246 185 160 161 157 158 154 171 164 158 161 162 161 156 158 152
38 42 347 346 354 223 185 25 242 277 281 240 255 278 292 311 304 305 299 306 309 303 290 280 271 270 266 255 260 251 250 249 249 214 220 170 162 159 165 156 160 163 160 161 154 156 148 148 151
317 132 147 255 274 280 294 230 249 233 273 279 239 266 306 313 273 290 277 298 298 292 283 277 276 272 260 258 258 255 254 244 239 221 205 185 168 167 162 159 154 163 156 159 153 151 144 144 144
157 187 168 157 242 351 249 284 292 273 274 287 315 308 310 284 300 285 286 293 293 291 291 283 277 268 264 260 257 252 248 232 232 207 178 233 170 163 161 157 151 157 164 157 150 149 143 141 141
179 159 61 5 291 295 271 269 253 292 282 284 297 299 306 295 276 272 287 303 301 296 288 286 273 269 261 253 244 245 241 236 231 195 187 157 203 154 157 154 149 148 151 152 150 143 146 141 143
105 251 191 172 172 221 291 278 221 251 268 294 287 305 308 303 281 285 294 303 294 292 290 286 281 271 263 251 242 235 233 226 233 190 178 166 156 165 158 157 153 152 155 151 149 150 150 143 144
190 203 166 145 262 244 233 272 290 285 276 305 307 301 299 298 290 297 300 311 301 300 298 295 282 274 261 249 233 223 220 217 225 188 170 156 161 166 160 156 154 153 154 152 146 154 155 148 148